This demonstration page uses our WeatherBlox Daily Observations layout. Learn more.

Left ArrowRight Arrow

39.01783, -85.05884

Hourly Observations for June 9, 2017

Temp ( °F °C ) Dew Point ( °F °C ) Humidity (%) Winds ( mph kmh ) Pressure ( in mb ) Visibility ( mi km ) Precip ( " mm )
12:52 am 00:52 Clear 60 15.6 50 10 70 70 W 7 11 29.89 1012 10 16 N/A
1:52 am 01:52 Clear 56 13.3 50 10 81 81 W 3 6 29.88 1012 10 16 N/A
2:52 am 02:52 Clear 54 12.2 50 10 87 87 N N/A 29.88 1012 10 16 N/A
3:52 am 03:52 Partly Cloudy 54 12.2 52 11.1 93 93 N N/A 29.87 1012 10 16 N/A
4:52 am 04:52 Partly Cloudy 51 10.6 50 10 96 96 N N/A 29.88 1012 10 16 N/A
5:52 am 05:52 Mostly Clear 52 11.1 50 10 93 93 SSW 3 6 29.89 1012 10 16 N/A
6:52 am 06:52 Mostly Sunny 53 11.7 51 10.6 93 93 SW 5 7 29.91 1013 10 16 N/A
7:52 am 07:52 Mostly Sunny 58 14.4 55 12.8 90 90 N N/A 29.92 1013 10 16 N/A
8:52 am 08:52 Mostly Sunny 65 18.3 54 12.2 68 68 SW 6 9 29.93 1014 10 16 N/A
9:52 am 09:52 Mostly Sunny 70 21.1 54 12.2 57 57 SW 7 11 29.94 1014 10 16 N/A
10:52 am 10:52 Sunny 73 22.8 54 12.2 51 51 WSW 12 19 29.93 1014 10 16 N/A
11:52 am 11:52 Sunny 75 23.9 53 11.7 46 46 SW 12 19 29.94 1014 10 16 N/A
12:52 pm 12:52 Mostly Sunny 77 25 52 11.1 42 42 SW 12 19 29.94 1014 10 16 N/A
1:52 pm 13:52 Mostly Sunny 79 26.1 52 11.1 39 39 SW 13 20 29.93 1014 10 16 N/A
2:52 pm 14:52 Mostly Sunny 79 26.1 52 11.1 39 39 SW 8 13 29.91 1013 10 16 N/A
3:52 pm 15:52 Mostly Sunny 80 26.7 53 11.7 39 39 SW 7 11 29.90 1013 10 16 N/A
4:52 pm 16:52 Mostly Sunny 81 27.2 54 12.2 39 39 SW 8 13 29.89 1012 10 16 N/A
5:52 pm 17:52 Partly Cloudy 81 27.2 52 11.1 37 37 WSW 10 17 29.88 1012 10 16 N/A
6:52 pm 18:52 Mostly Sunny 79 26.1 53 11.7 41 41 SSW 10 17 29.88 1012 10 16 N/A
7:52 pm 19:52 Sunny 77 25 54 12.2 45 45 SSW 7 11 29.88 1012 10 16 N/A
8:52 pm 20:52 Mostly Sunny 74 23.3 53 11.7 48 48 SSW 6 9 29.88 1012 10 16 N/A
9:52 pm 21:52 Mostly Clear 71 21.7 54 12.2 55 55 SSW 6 9 29.90 1013 10 16 N/A
10:52 pm 22:52 Clear 69 20.6 54 12.2 59 59 SSW 7 11 29.92 1013 10 16 N/A
11:52 pm 23:52 Clear 67 19.4 55 12.8 66 66 SSW 7 11 29.93 1014 10 16 N/A

Powered by AerisWeather